Regional Weather Roundup
Issued by NWS Newport/Morehead, NC

Current Version | Previous Version | Text Only | Print | Product List | Glossary On
Versions: 1 2 3 4 5 6 7 8 9 10 11 12 13 14 15 16 17 18 19 20 21 22 23 24 25 26 27 28 29 30 31 32 33 34 35 36 37 38 39 40 41 42 43 44 45 46 47 48 49 50
000
ASUS42 KMHX 282013
RWRMHX
WEATHER ROUNDUP FOR EASTERN NORTH CAROLINA
NATIONAL WEATHER SERVICE NEWPORT/MOREHEAD CITY NC
400 PM EDT THU APR 28 2016

NOTE: "FAIR" INDICATES FEW OR NO CLOUDS BELOW 12,000 FEET
WITH NO SIGNIFICANT WEATHER AND/OR OBSTRUCTIONS TO VISIBILITY

NCZ015>017-031-032-045>047-102-103-282100-
NORTH COAST

CITY           SKY/WX    TMP DP  RH WIND       PRES   REMARKS
EDENTON        SUNNY     71  66  84 E8        29.89S
ELIZABETH CITY MOSUNNY   69  63  81 E7        29.89F
KITTY HAWK     CLOUDY    69  62  76 E6        29.89F
MANTEO         NOT AVBL

$$

NCZ045>047-081-094-103-104-282100-
CENTRAL COAST

CITY           SKY/WX    TMP DP  RH WIND       PRES   REMARKS
FRISCO         MOSUNNY   75  68  78 SW9G17    29.91F
SWANQUARTER    NOT AVBL

$$

NCZ095-097-098-100-101-282100-
SOUTHERN COAST

CITY           SKY/WX    TMP DP  RH WIND       PRES   REMARKS
BEAUFORT       CLOUDY    74  68  81 SW16G22   29.89F
CEDAR ISLAND   NOT AVBL
JACKSONVILLE   MOSUNNY   84  61  45 SW12G21   29.87F
PINEY ISLAND   NOT AVBL
WILMINGTON     MOSUNNY   83  65  54 S12       29.88F


$$

NCZ011>013-027>030-043-044-078>080-089-090>093-098-282100-
COASTAL PLAIN

CITY           SKY/WX    TMP DP  RH WIND       PRES   REMARKS
AHOSKIE        MOSUNNY   74  66  76 NE3       29.87F
CLINTON        SUNNY     86  65  48 SW12G17   29.87S
ELIZABETHTOWN  MOSUNNY   85  62  45 SW9       29.87F
GOLDSBORO      MOSUNNY   86  64  48 SW15      29.83F
GREENVILLE     PTSUNNY   84  68  58 SW8       29.87F
HAVELOCK       PTSUNNY   82  69  64 SW13G18   29.88F
KENANSVILLE    MOSUNNY   85  61  44 CALM      29.86F
KINSTON        MOSUNNY   86  63  45 SW10      29.85F
NEW BERN       PTSUNNY   86  64  47 SW12G20   29.86F
RICHLANDS      MOSUNNY   86  64  47 SW13G20   29.86F
ROCKY MOUNT    SUNNY     85  67  54 SW10      29.84F
WASHINGTON     SUNNY     84  66  55 SW8       29.84F
WHITEVILLE     SUNNY     84  63  48 SW9       29.88F

$$

AMZ130-135-150-152-154-156-158-170-250-252-270-ANZ085-086-088-633-658-670-282100-
MARINE OBSERVATIONS

STATION/POSITION TIME  TEMP    WIND        PRES    WAVE   SWELL
                       AIR SEA DIR/SP/G            HT/PER HT/PER
                 (UTC) (F)     (DEG/KT/KT) (MB)    (FT/S) (FT/S)
CHESAPEAKE LIGHT 2000   54      60/  9/ 10 1013.3
64 E VA BEACH    1950   57 55  130/  6/  6 1012.4    3/ 6   3/ 6
DUCK             1900   59 67   60/  6/  7 1012.5
2 E DUCK         1911      59                N/A     3/ 5
OREGON INLET     1900   70 65  190/ 12/ 15 1012.1
13E OREGON INLT  2000      62                N/A     3/ 6   2/11
HATTERAS CG      1900   73 68  210/ 11/ 15 1012.7
DIAMOND BUOY     1950   74 72  210/ 19/ 21 1012.3    3/ 6   2/11
CAPE LOOKOUT     2000   72     200/ 12/ 16 1012.2
BEAUFORT LAB     1900   70 67  210/ 11/ 16 1012.1
30 SE NEW RVR IN 1925      67                N/A     4/ 6
27 SE WRIGHTSVLE 1908   71 69  230/ 12/ 17 1016.9
5 SE WRIGHTSVLE  1908   70 67  210/ 14/ 17 1013.6
225 S CAPE HAT   1950   72 72  180/ 10/ 12 1016.5    2/ 8   2/ 8
41 SE CHARLESTON 1950   72 71  190/  8/  8 1014.0    3/ 5   2/ 5

$$




USA.gov is the U.S. government's official web portal to all federal, state and local government web resources and services.